A/2019 O3

Japanese version
Home page
Updated on August 10, 2019

---------------------------------------------------------------------

* Profile

Discovery Date July 26, 2019
Magnitude 19.30 mag
Discoverer Q.-Z. Ye (Palomar Mountain--ZTF)

* Orbital Elements

T 2021 Mar. 5.81545 TT                                  Veres                   
q   8.8223389            (2000.0)            P               Q                  
                   Peri.   59.92150     +0.25595943     -0.43611998             
                   Node   300.37618     -0.73955975     +0.48637173             
e   1.0            Incl.   89.80644     +0.62252401     +0.75712740             
H   10.0                                                                        
From 62 observations 2019 May 14-Aug. 6.                                        

* Magnitudes Graph

        H = 10.0  G = 0.15

---------------------------------------------------------------------

The orbital elements are published on M.P.E.C. 2019-P55.
The magnitudes graphs are made with Comet for Windows.

---------------------------------------------------------------------

Copyright(C) Seiichi Yoshida (comet@aerith.net). All rights reserved.